LZ0VRC-10 Weather Reports


time (UTC)temp
C
wind
direction
speed
KPH
gust
KPH
rain 1hr
cm
rain 24hr
cm
rain mn
cm
humidity
%
barometer
mb
20260503225004 5 0.0 0.0 0.00 0.00 0.00 73 1020.8
20260503223504 5 0.0 0.0 0.00 0.00 0.00 70 1020.9
20260503222004 6 0.0 0.0 0.00 0.00 0.00 61 1021.0
20260503220508 6 0.0 0.0 0.00 0.00 0.00 59 1021.0
20260503220504 6 0.0 0.0 0.00 0.00 0.00 59 1021.0
20260503215008 6 0.0 0.0 0.00 0.00 0.00 59 1021.1
20260503215004 6 0.0 0.0 0.00 0.00 0.00 59 1021.1
20260503213509 6 0.0 0.0 0.00 0.00 0.00 59 1021.1
20260503213504 6 0.0 0.0 0.00 0.00 0.00 59 1021.1
20260503212009 6 0.0 0.0 0.00 0.00 0.00 60 1021.0
20260503212004 6 0.0 0.0 0.00 0.00 0.00 60 1021.0
20260503210509 6 0.0 0.0 0.00 0.00 0.00 59 1021.0
20260503210504 6 0.0 0.0 0.00 0.00 0.00 59 1021.0
20260503205009 6 0.0 0.0 0.00 0.00 0.00 56 1021.0
20260503205004 6 0.0 0.0 0.00 0.00 0.00 56 1021.0
20260503203504 6 0.0 0.0 0.00 0.00 0.00 58 1021.2
20260503202009 6 0.0 0.0 0.00 0.00 0.00 58 1021.4
20260503202004 6 0.0 0.0 0.00 0.00 0.00 58 1021.4
20260503200509 7 0.0 0.0 0.00 0.00 0.00 57 1021.5
20260503200504 7 0.0 0.0 0.00 0.00 0.00 57 1021.5
20260503195009 6 0.0 0.0 0.00 0.00 0.00 60 1021.6
20260503195004 6 0.0 0.0 0.00 0.00 0.00 60 1021.6
20260503193509 6 0.0 0.0 0.00 0.00 0.00 60 1021.6
20260503193504 6 0.0 0.0 0.00 0.00 0.00 60 1021.6
20260503192004 6 0.0 0.0 0.00 0.00 0.00 61 1021.5
20260503190504 6 0.0 0.0 0.00 0.00 0.00 63 1021.4
20260503185009 7 0.0 0.0 0.00 0.00 0.00 59 1021.3
20260503185004 7 0.0 0.0 0.00 0.00 0.00 59 1021.3
20260503183504 7 0.0 0.0 0.00 0.00 0.00 58 1021.3
20260503182009 7 0.0 0.0 0.00 0.00 0.00 58 1021.2
20260503182005 7 0.0 0.0 0.00 0.00 0.00 58 1021.2
20260503180509 7 0.0 0.0 0.00 0.00 0.00 57 1021.2
20260503180504 7 0.0 0.0 0.00 0.00 0.00 57 1021.2
20260503175004 8 0.0 0.0 0.00 0.00 0.00 54 1021.2
20260503173509 8 0.0 0.0 0.00 0.00 0.00 52 1021.3
20260503173504 8 0.0 0.0 0.00 0.00 0.00 52 1021.3
20260503172009 10 0.0 0.0 0.00 0.00 0.00 48 1021.4
20260503172004 10 0.0 0.0 0.00 0.00 0.00 48 1021.4
20260503170509 12 0.0 0.0 0.00 0.00 0.00 41 1021.4
20260503170504 12 0.0 0.0 0.00 0.00 0.00 41 1021.4
20260503150504 16 0.0 0.0 0.00 0.00 0.00 31 1021.7
20260503130510 13 0.0 0.0 0.00 0.00 0.00 40 1022.9
20260503130505 13 0.0 0.0 0.00 0.00 0.00 40 1022.9
20260503110505 11 0.0 0.0 0.00 0.00 0.00 41 1023.5
20260503090510 12 0.0 0.0 0.00 0.00 0.00 57 1024.1
20260503090505 12 0.0 0.0 0.00 0.00 0.00 57 1024.1
20260503080510 11 0.0 0.0 0.00 0.00 0.00 68 1024.2
20260503080505 11 0.0 0.0 0.00 0.00 0.00 68 1024.2
20260503072005 9 0.0 0.0 0.00 0.00 0.00 74 1024.2
20260503070505 10 0.0 0.0 0.00 0.00 0.00 73 1024.1
20260503055010 9 0.0 0.0 0.00 0.00 0.00 81 1023.8
20260503055006 9 0.0 0.0 0.00 0.00 0.00 81 1023.8
20260503053510 8 0.0 0.0 0.00 0.00 0.00 89 1023.8
20260503053506 8 0.0 0.0 0.00 0.00 0.00 89 1023.8
20260503052010 7 0.0 0.0 0.00 0.00 0.00 94 1023.7
20260503052006 7 0.0 0.0 0.00 0.00 0.00 94 1023.7
20260503050511 6 0.0 0.0 0.00 0.00 0.00 97 1023.6
20260503050506 6 0.0 0.0 0.00 0.00 0.00 97 1023.6
20260503045011 7 0.0 0.0 0.00 0.00 0.00 99 1023.6
20260503045006 7 0.0 0.0 0.00 0.00 0.00 99 1023.6
20260503043511 6 0.0 0.0 0.00 0.00 0.00 99 1023.3
20260503043506 6 0.0 0.0 0.00 0.00 0.00 99 1023.3
20260503042011 6 0.0 0.0 0.00 0.00 0.00 99 1023.2
20260503042006 6 0.0 0.0 0.00 0.00 0.00 99 1023.2
20260503040511 5 0.0 0.0 0.00 0.00 0.00 99 1023.0
20260503040506 5 0.0 0.0 0.00 0.00 0.00 99 1023.0
20260503035011 5 0.0 0.0 0.00 0.00 0.00 99 1022.8
20260503035006 5 0.0 0.0 0.00 0.00 0.00 99 1022.8
20260503033511 5 0.0 0.0 0.00 0.00 0.00 99 1022.7
20260503033506 5 0.0 0.0 0.00 0.00 0.00 99 1022.7
20260503032011 5 0.0 0.0 0.00 0.00 0.00 99 1022.7
20260503032006 5 0.0 0.0 0.00 0.00 0.00 99 1022.7
20260503030511 5 0.0 0.0 0.00 0.00 0.00 99 1022.7
20260503030506 5 0.0 0.0 0.00 0.00 0.00 99 1022.7
20260503025011 5 0.0 0.0 0.00 0.00 0.00 99 1022.6
20260503025006 5 0.0 0.0 0.00 0.00 0.00 99 1022.6
20260503023511 4 0.0 0.0 0.00 0.00 0.00 99 1022.5
20260503023506 4 0.0 0.0 0.00 0.00 0.00 99 1022.5
20260503022006 4 0.0 0.0 0.00 0.00 0.00 99 1022.4
20260503020506 4 0.0 0.0 0.00 0.00 0.00 99 1022.4
20260503015011 3 0.0 0.0 0.00 0.00 0.00 99 1022.5
20260503015006 3 0.0 0.0 0.00 0.00 0.00 99 1022.5
20260503013511 4 0.0 0.0 0.00 0.00 0.00 99 1022.4
20260503013506 4 0.0 0.0 0.00 0.00 0.00 99 1022.4
20260503012006 4 0.0 0.0 0.00 0.00 0.00 99 1022.4
20260503010511 5 0.0 0.0 0.00 0.00 0.00 99 1022.4
20260503010506 5 0.0 0.0 0.00 0.00 0.00 99 1022.4
20260503005006 5 0.0 0.0 0.00 0.00 0.00 99 1022.3
20260503003511 5 0.0 0.0 0.00 0.00 0.00 99 1022.4
20260503003506 5 0.0 0.0 0.00 0.00 0.00 99 1022.4
20260503002011 5 0.0 0.0 0.00 0.00 0.00 99 1022.5
20260503002006 5 0.0 0.0 0.00 0.00 0.00 99 1022.5
20260503000511 5 0.0 0.0 0.00 0.00 0.00 99 1022.5
20260503000506 5 0.0 0.0 0.00 0.00 0.00 99 1022.5
20260502235006 5 0.0 0.0 0.00 0.00 0.00 99 1022.5
20260502233511 5 0.0 0.0 0.00 0.00 0.00 99 1022.6
20260502233506 5 0.0 0.0 0.00 0.00 0.00 99 1022.6
20260502232011 5 0.0 0.0 0.00 0.00 0.00 99 1022.7
20260502232006 5 0.0 0.0 0.00 0.00 0.00 99 1022.7
20260502230511 6 0.0 0.0 0.00 0.00 0.00 99 1023.0
20260502230506 6 0.0 0.0 0.00 0.00 0.00 99 1023.0